This is the latest recevied weather packets stored in our database for station/object LRBV. If no packets are shown the sender has not sent any weather packets the latest 10 day(s).
| Time | Temp. | Humidity | Pressure | Rain* | Wind** | Luminosity | Snow |
|---|---|---|---|---|---|---|---|
| 1778092431 | 17.78° C | 52% | 1014 hPa | - | - | - | - |
| 1778091531 | 17.78° C | 52% | 1013 hPa | - | - | - | - |
| 1778090631 | 17.78° C | 52% | 1013 hPa | - | - | - | - |
| 1778087931 | 18.89° C | 46% | 1013 hPa | - | - | - | - |
| 1778086131 | 20° C | 40% | 1013 hPa | - | - | - | - |
| 1778085230 | 20° C | 40% | 1013 hPa | - | - | - | - |
| 1778084333 | 20° C | 38% | 1013 hPa | - | - | - | - |
| 1778078042 | 22.22° C | 36% | 1013 hPa | - | - | - | - |
| 1778076312 | 21.11° C | 43% | 1013 hPa | - | - | - | - |
| 1778074431 | 22.78° C | 36% | 1013 hPa | - | - | - | - |
| 1778070830 | 25° C | 19% | 1013 hPa | - | - | - | - |
| 1778069931 | 26.11° C | 24% | 1013 hPa | - | - | - | - |
| 1778067231 | 25° C | 24% | 1014 hPa | - | - | - | - |
| 1778064531 | 23.89° C | 29% | 1014 hPa | - | - | - | - |
| 1778063631 | 23.89° C | 29% | 1014 hPa | - | - | - | - |
| 1778062731 | 22.78° C | 33% | 1014 hPa | - | - | - | - |
| 1778061831 | 22.78° C | 33% | 1014 hPa | - | - | - | - |
| 1778060931 | 22.22° C | 36% | 1015 hPa | - | - | - | - |
| 1778057331 | 20° C | 49% | 1015 hPa | - | - | - | - |
| 1778056430 | 20° C | 49% | 1015 hPa | - | - | - | - |
| 1778055527 | 18.89° C | 46% | 1015 hPa | - | - | - | - |
| 1778054631 | 18.89° C | 46% | 1015 hPa | - | - | - | - |
| 1778053731 | 17.22° C | 56% | 1015 hPa | - | - | - | - |
| 1778052831 | 17.22° C | 56% | 1015 hPa | - | - | - | - |
| 1778051930 | 16.11° C | 59% | 1015 hPa | - | - | - | - |
* Rain since midnight (hover to see other rain measurements)
** Current wind speed in m/s (hover to see current wind gust speed)